AirNav   Phillips 66 Aviation Fuel
 
 275 users online  

MO5 Bollinger-Crass Memorial Airport
Van Buren, Missouri, USA

GOING TO VAN BUREN?


FAA INFORMATION EFFECTIVE 23 MAY 2019

Location

FAA Identifier: MO5
Lat/Long: 37-00-33.8000N / 091-00-24.8000W
37-00.563333N / 091-00.413333W
37.0093889 / -91.0068889
(estimated)
Elevation: 652 ft. / 199 m (estimated)
Variation: 03E (1985)
From city: 1 mile N of VAN BUREN, MO
Time zone: UTC -5 (UTC -6 during Standard Time)
Zip code: 63965

Airport Operations

Airport use: Open to the public
Activation date: 02/1976
Control tower: no
ARTCC: MEMPHIS CENTER
FSS: SAINT LOUIS FLIGHT SERVICE STATION
NOTAMs facility: STL (NOTAM-D service available)
Attendance: UNATNDD
Wind indicator: no
Segmented circle: yes
POOR CONDITION
Beacon: BEACON OTS INDEFLY.

Airport Communications

CTAF: 122.9
WX AWOS-3 at PYN (16 nm NE): 118.475 (573-223-2796)

Airport Services

Parking: tiedowns

Runway Information

Runway 2/20

Dimensions: 2600 x 50 ft. / 792 x 15 m
Surface: asphalt, in excellent condition
RUNWAY 2  RUNWAY 20
Latitude: 37-00.374667N37-00.753167N
Longitude: 091-00.539167W091-00.288333W
Elevation: 647.0 ft.652.0 ft.
Traffic pattern: leftleft
Markings: basic, in fair conditionbasic, in fair condition
Obstructions: 13 ft. brush, 278 ft. from runway, 22 ft. left of centerline, 6:1 slope to clear
RWY 02 1-17 FT BRUSH & TREES, TALL WEEDS & HIGH GND, 0-200 FT FM RY END, L&R.
36 ft. trees, 280 ft. from runway, 34 ft. left of centerline, 2:1 slope to clear
RWY 20 +1-33 FT BRUSH & TREES 0-75 FT FM RY END, 100-120 FT L.

Airport Ownership and Management from official FAA records

Ownership: Publicly-owned
Owner: CITY OF VAN BUREN
PO BOX 40
VAN BUREN, MO 63965
Phone 573-323-4335
Manager: RON KEENEY
PO BOX 40
VAN BUREN, MO 63965
Phone 573-323-4335
PUBLIC WORKS DIRECTOR.

Airport Operational Statistics

Aircraft operations: avg 37/month *
80% transient general aviation
18% local general aviation
2% military
* for 12-month period ending 31 December 2016

Additional Remarks

DEER & WILDLIFE ON & INVOF ARPT.
NTSD RY SAFETY AREA ALONG SIDES OF RY AND BYD RY 20 END. LARGE DROP-OFFS, INCORRECT TERRAIN GRADIENTS, BRUSH & TREES.

Instrument Procedures

There are no published instrument procedures at MO5.

Some nearby airports with instrument procedures:

KMNF - Mountain View Airport (34 nm W)
KPOF - Poplar Bluff Municipal Airport (36 nm SE)
4M9 - Corning Municipal Airport (40 nm SE)
KUNO - West Plains Regional Airport (44 nm W)
M70 - Pocahontas Municipal Airport (46 nm S)
 
Loc | Ops | Rwys | IFR | FBO | Links
Com | Nav | Svcs | Stats | Notes

Kansas City Aviation Department
 
Area around MO5 (Bollinger-Crass Memorial Airport)
 
Road maps at: MapQuest Bing Google
 
Aerial photo
WARNING: Photo may not be current or correct
Aerial photo of MO5 (Bollinger-Crass Memorial Airport)
Photo by Matt Barnes
Photo taken 07-Jul-2009

Do you have a better or more recent aerial photo of Bollinger-Crass Memorial Airport that you would like to share? If so, please send us your photo.

 
Sectional chart

 
Airport distance calculator
Flying to Bollinger-Crass Memorial Airport? Find the distance to fly.

From to MO5

Sunrise and sunset
Times for 23-May-2019
 Local
(UTC-5)
 Zulu
(UTC)
Morning civil twilight05:2210:22
Sunrise05:5110:51
Sunset20:1001:10
Evening civil twilight20:4001:40

Current date and time
Zulu (UTC)  23-May-2019 06:58:04
Local (UTC-5)  23-May-2019 01:58:04
 
METAR
KPOF 
36nm SE 
230653Z AUTO 16007KT 10SM FEW050 24/23 A2998 RMK AO2 SLP146 T02390228 $
K4M9 
40nm SE 
230655Z AUTO 19005KT 24/24 A2999 RMK AO2 PWINO
KUNO 
43nm W 
230653Z AUTO 19010KT 10SM CLR 24/21 A3000 RMK AO2 SLP143 T02440206
TAF
NOTAMs
Click for the latest NOTAMs
NOTAMs are issued by the DoD/FAA and will open in a separate window not controlled by AirNav.

 

 
 

Would you like to see your business listed on this page?

 If your business provides an interesting product or service to pilots, flight crews, aircraft, or users of the Bollinger-Crass Memorial Airport, you should consider listing it here.  To start the listing process, click on the button below
 
Add a business
 

Other Pages about Bollinger-Crass Memorial Airport

Update a link
 
Copyright © AirNav, LLC. All rights reserved. Privacy Policy  Contact